Stations météo

réclame
Mon MeteoGroup
St-Etienne Boutheon, France (7475): Température de l'air & dewpoint: 23.09.2020 22:00:00 - 29.09.2020 22:00:00 (CEST)St-Etienne Boutheon, France (7475): Température de l'air 5cm: 23.09.2020 22:00:00 - 29.09.2020 22:00:00 (CEST)St-Etienne Boutheon, France (7475): Température de l'air -20cm & Température de l'air -100cm: 23.09.2020 22:00:00 - 29.09.2020 22:00:00 (CEST)St-Etienne Boutheon, France (7475): Vitesse du vent & gusts: 23.09.2020 22:00:00 - 29.09.2020 22:00:00 (CEST)St-Etienne Boutheon, France (7475): Direction du vent: 23.09.2020 22:00:00 - 29.09.2020 22:00:00 (CEST)St-Etienne Boutheon, France (7475): reduced air pressure: 23.09.2020 22:00:00 - 29.09.2020 22:00:00 (CEST)St-Etienne Boutheon, France (7475): visibility: 23.09.2020 22:00:00 - 29.09.2020 22:00:00 (CEST)St-Etienne Boutheon, France (7475): Ensoleillement: 23.09.2020 22:00:00 - 29.09.2020 22:00:00 (CEST)St-Etienne Boutheon, France (7475): Quantités de précipitations: 23.09.2020 22:00:00 - 29.09.2020 22:00:00 (CEST)
Date & Time tt [°C] td [°C] tt 5cm [°C] tt -20cm [°C] tt -100cm [°C] ff [km/h] ff [knt] fx [km/h] fx [knt] dd ppp [hPa] vv [km] sd [min] rr [mm]
29.09.2020 22:00:00 8,5 7,1 4,7 15,7 17,4 4 2 8 5 SE 1020,6 19 0 0,0
29.09.2020 21:00:00 9,8 8,7 6,0 15,9 17,4 5 3 6 3 SSE 1020,2 37 0 0,0
29.09.2020 20:00:00 12,7 8,6 9,5 16,0 17,4 3 1 4 2 NE 1019,8 52 1 0,0
29.09.2020 19:00:00 15,2 8,4 16,0 15,9 17,4 3 2 10 5 NW 1019,4 57 46 0,0
29.09.2020 18:00:00 15,3 8,8 16,2 15,7 17,5 6 3 14 8 NNW 1019,3 56 0 0,0
29.09.2020 17:00:00 15,5 8,7 17,3 15,4 17,5 8 4 18 10 N 1019,2 39 0 0,0
29.09.2020 16:00:00 16,0 8,5 19,3 14,8 17,5 7 4 16 9 N 1019,6 39 6 0,0
29.09.2020 15:00:00 16,0 9,4 18,8 14,2 17,5 7 4 18 10 NE 1019,9 44 52 0,0
29.09.2020 14:00:00 15,0 8,5 19,3 13,7 17,5 8 4 17 9 NW 1020,8 40 19 0,0
29.09.2020 13:00:00 14,3 8,3 17,7 13,2 17,5 7 4 16 9 N 1021,2 36 30 0,0
29.09.2020 12:00:00 13,8 8,2 16,7 12,9 17,6 4 2 13 7 N 1021,5 30 20 0,0
29.09.2020 11:00:00 13,2 7,8 16,3 12,7 17,6 2 1 14 8 ESE 1021,7 44 55 0,0
29.09.2020 10:00:00 11,4 8,1 12,4 12,8 17,6 4 2 9 5 SSE 1021,8 40 57 0,0
29.09.2020 09:00:00 8,8 8,0 5,1 12,9 17,6 4 2 7 4 S 1021,9 27 45 0,0
29.09.2020 08:00:00 6,9 6,6 4,4 13,1 17,6 2 1 6 3 S 1021,7 1,2 0 0,0
29.09.2020 07:00:00 7,7 7,1 5,3 13,2 17,7 2 1 5 3 W 1021,2 4,8 0 0,0
29.09.2020 06:00:00 8,2 7,6 6,5 13,3 17,7 2 1 8 4 SE 1020,8 35 0 0,0
29.09.2020 05:00:00 9,3 7,7 8,4 13,4 17,7 7 4 9 5 S 1020,7 55 0 0,0
29.09.2020 04:00:00 9,8 8,1 9,3 13,4 17,7 4 2 12 6 S 1020,7 55 0 0,0
29.09.2020 03:00:00 10,0 7,8 9,1 13,5 17,8 8 5 12 7 S 1020,6 59 0 0,0
29.09.2020 02:00:00 9,7 8,1 9,0 13,5 17,8 8 4 13 7 S 1020,5 47 0 0,0
29.09.2020 01:00:00 9,7 8,1 9,1 13,6 17,8 7 4 12 6 S 1020,4 52 0 0,0
29.09.2020 00:00:00 9,9 8,3 9,3 13,7 17,8 9 5 13 7 S 1020,5 54 0 0,0
28.09.2020 23:00:00 10,1 8,0 9,4 13,7 17,8 10 6 15 8 SSE 1019,9 60 0 0,0
28.09.2020 22:00:00 10,0 8,8 9,5 13,8 17,8 8 4 11 6 SSE 1019,6 39 0 0,0
28.09.2020 21:00:00 10,1 8,7 9,1 13,9 17,9 6 3 11 6 S 1019,0 48 0 0,0
28.09.2020 20:00:00 10,1 7,7 9,0 13,9 17,9 8 4 28 15 NNW 1018,5 55 0 0,2
28.09.2020 19:00:00 10,3 9,7 10,1 13,8 17,9 8 4 16 9 NW 1017,7 9 0 0,4
28.09.2020 18:00:00 10,7 9,3 10,4 13,8 17,9 5 3 13 7 WNW 1016,6 59 0 0,2
28.09.2020 17:00:00 10,9 9,5 10,7 13,6 18,0 8 5 16 9 NNW 1016,1 20 0 0,0
28.09.2020 16:00:00 11,1 9,5 11,1 13,4 18,0 11 6 17 9 N 1015,6 59 0 0,2
28.09.2020 15:00:00 11,3 9,7 11,4 13,2 18,0 4 2 9 5 NNW 1015,1 20 0 0,2
28.09.2020 14:00:00 11,4 9,6 11,0 13,1 18,0 3 1 8 4 N 1014,8 13 0 0,4
28.09.2020 13:00:00 10,8 8,9 10,9 12,9 18,1 5 3 8 4 E 1014,2 14 0 0,4
28.09.2020 12:00:00 10,8 8,4 10,7 12,8 18,1 0 0 10 6 N 1013,7 20 0 0,2
28.09.2020 11:00:00 10,3 9,2 10,0 12,8 18,1 6 3 9 5 SSE 1013,4 12 0 0,8
28.09.2020 10:00:00 9,7 9,1 9,4 12,7 18,1 5 3 8 4 S 1013,0 9 0 0,4
28.09.2020 09:00:00 9,3 8,8 8,9 12,8 18,2 6 4 10 5 S 1012,4 11 0 1,4
28.09.2020 08:00:00 9,0 8,7 8,7 12,8 18,2 6 3 9 5 SE 1012,0 9 0 1,8
28.09.2020 07:00:00 8,9 8,4 8,7 12,8 18,2 7 4 12 6 SSE 1011,2 6 0 0,4
28.09.2020 06:00:00 8,8 8,3 8,6 12,8 18,2 9 5 12 6 SSE 1011,1 4,1 0 0,4
28.09.2020 05:00:00 8,6 8,2 8,4 12,8 18,2 7 4 10 6 SE 1011,1 3,2 0 0,2
28.09.2020 04:00:00 8,5 7,9 8,2 12,9 18,2 5 3 13 7 SSE 1011,0 13 0 0,2
28.09.2020 03:00:00 8,4 7,8 8,1 13,0 18,3 9 5 12 7 SE 1011,0 16 0 0,6
28.09.2020 02:00:00 8,2 7,6 7,9 13,0 18,3 7 4 12 7 ESE 1011,0 10 0 0,4
28.09.2020 01:00:00 8,2 7,3 7,6 13,1 18,4 5 3 15 8 ESE 1010,9 7 0 0,6
28.09.2020 00:00:00 8,1 6,9 7,6 13,2 18,4 9 5 15 8 SE 1010,5 18 0 0,2
27.09.2020 23:00:00 8,1 6,7 7,2 13,3 18,4 12 6 18 10 S 1010,3 60 0 0,0
27.09.2020 22:00:00 7,6 6,4 6,9 13,4 18,4 12 7 19 11 S 1010,2 43 0 0,4
27.09.2020 21:00:00 7,6 6,1 6,7 13,5 18,4 11 6 20 11 S 1009,8 12 0 0,4
27.09.2020 20:00:00 7,4 5,7 6,5 13,7 18,5 13 7 29 16 S 1009,6 40 0 0,4
27.09.2020 19:00:00 7,5 5,1 6,7 13,6 18,5 16 8 23 13 SSW 1009,3 55 0 0,4
27.09.2020 18:00:00 8,2 5,7 7,6 13,5 18,5 13 7 21 11 S 1009,0 48 0 0,0
27.09.2020 17:00:00 8,7 6,3 8,2 13,4 18,5 12 7 18 10 S 1008,9 37 0 0,2
27.09.2020 16:00:00 8,4 6,2 8,2 13,2 18,6 5 3 13 7 SE 1009,3 14 0 1,4
27.09.2020 15:00:00 8,9 5,6 8,7 13,0 18,6 9 5 18 10 SSW 1009,1 12 0 0,4
27.09.2020 14:00:00 8,5 5,2 8,1 12,8 18,6 11 6 19 10 S 1009,3 20 0 0,8
27.09.2020 13:00:00 8,0 5,8 7,7 12,7 18,6 7 4 14 7 ESE 1009,6 7 0 1,6
27.09.2020 12:00:00 8,5 4,7 8,1 12,5 18,6 4 2 8 4 SSE 1009,3 12 0 0,3
27.09.2020 11:00:00 8,5 5,4 8,1 12,4 18,7 3 2 13 7 WNW 1009,3 30 0 0,8
27.09.2020 10:00:00 7,5 6,1 6,1 12,4 18,7 8 4 14 7 SSE 1009,4 27 0 0,8
27.09.2020 09:00:00 6,0 5,1 5,3 12,5 18,7 9 5 16 9 SE 1009,7 8 0 1,2
27.09.2020 08:00:00 5,4 4,7 4,8 12,6 18,7 8 5 13 7 SSE 1009,7 6 0 1,8
27.09.2020 07:00:00 5,0 4,3 4,5 12,7 18,7 6 3 12 6 SSE 1009,7 5 0 1,2
27.09.2020 06:00:00 4,6 4,2 2,8 12,9 18,7 8 4 13 7 SSE 1009,6 14 0 0,0
27.09.2020 05:00:00 3,9 3,3 0,7 13,2 18,8 5 3 11 6 SW 1010,3 55 0 0,0
27.09.2020 04:00:00 3,3 3,2 0,1 13,5 18,8 4 2 9 5 S 1011,1 42 0 0,0
27.09.2020 03:00:00 1,8 1,5 -0,9 13,8 18,8 8 4 9 5 S 1011,6 13 0 0,0
27.09.2020 02:00:00 2,2 1,9 0,0 14,1 18,8 6 3 8 4 SSE 1011,7 3,0 0 0,0
27.09.2020 01:00:00 3,2 3,1 -0,7 14,4 18,8 4 2 8 5 SSE 1011,2 19 0 0,0
27.09.2020 00:00:00 3,8 3,5 0,9 14,7 18,8 3 1 6 3 ESE 1010,7 1,1 0 0,0
26.09.2020 23:00:00 4,1 3,8 1,8 15,0 18,9 0 0 6 4 N 1010,3 19 0 0,0
26.09.2020 22:00:00 3,4 2,7 1,0 15,3 18,9 5 3 9 5 SE 1010,4 19 0 0,2
26.09.2020 21:00:00 4,5 3,6 1,7 15,6 18,9 5 3 7 4 SE 1010,3 53 0 0,0
26.09.2020 20:00:00 5,9 3,9 3,7 15,7 18,9 4 2 6 4 NE 1009,7 60 4 0,0
26.09.2020 19:00:00 7,7 5,0 7,6 15,8 18,9 3 2 13 7 N 1009,8 60 13 0,0
26.09.2020 18:00:00 7,2 4,5 7,0 15,8 18,9 9 5 75 40 N 1010,3 24 3 0,6
26.09.2020 17:00:00 11,4 3,4 11,6 15,6 19,0 10 6 27 15 NNW 1009,2 42 25 0,0
26.09.2020 16:00:00 10,1 3,4 11,5 15,4 19,0 22 12 47 26 NW 1010,3 49 9 0,0
26.09.2020 15:00:00 11,4 3,9 11,0 15,2 19,0 18 10 38 21 WNW 1010,0 41 17 0,0
26.09.2020 14:00:00 10,6 5,6 8,6 15,0 19,0 18 10 35 19 NW 1010,8 20 15 0,0
26.09.2020 13:00:00 8,6 5,0 7,6 14,8 19,0 23 12 43 23 NW 1011,7 5 0 0,4
26.09.2020 12:00:00 10,9 3,9 11,3 14,7 19,0 17 9 32 18 WNW 1011,6 18 12 0,0
26.09.2020 11:00:00 10,3 3,6 11,5 14,5 19,0 19 10 35 19 NW 1012,3 32 26 0,0
26.09.2020 10:00:00 10,4 5,6 13,9 14,5 19,0 8 4 19 10 NNW 1012,6 20 50 0,0
26.09.2020 09:00:00 9,4 5,0 8,2 14,6 19,1 10 5 18 10 N 1013,0 24 33 0,0
26.09.2020 08:00:00 8,4 4,6 8,0 14,8 19,1 8 4 16 9 NNW 1013,2 60 0 0,0
26.09.2020 07:00:00 8,5 4,9 8,2 14,9 19,1 8 5 29 16 NW 1013,2 60 0 0,0
26.09.2020 06:00:00 8,7 4,9 8,0 15,0 19,1 10 6 23 12 NNW 1013,0 60 0 0,0
26.09.2020 05:00:00 8,5 4,7 7,9 15,3 19,1 9 5 22 12 NW 1013,0 60 0 0,0
26.09.2020 04:00:00 8,9 3,9 7,6 15,4 19,1 13 7 27 15 NW 1013,0 60 0 0,0
26.09.2020 03:00:00 8,7 3,9 8,0 15,6 19,1 11 6 30 16 NW 1013,0 60 0 0,0
26.09.2020 02:00:00 9,0 3,8 8,2 15,8 19,1 14 8 30 16 NW 1013,3 60 0 0,0
26.09.2020 01:00:00 8,9 4,1 7,1 16,1 19,2 15 8 33 18 NNW 1013,1 60 0 0,0
26.09.2020 00:00:00 8,4 5,1 6,1 16,4 19,2 11 6 29 16 NW 1012,9 60 0 0,0
25.09.2020 23:00:00 7,6 5,4 5,7 16,6 19,2 4 2 11 6 NW 1012,7 60 0 0,0
25.09.2020 22:00:00 7,5 5,1 6,2 16,9 19,2 4 2 16 9 NW 1012,4 60 0 0,0
25.09.2020 21:00:00 7,5 5,3 6,3 17,1 19,2 6 4 24 13 NNW 1011,7 60 0 0,0
25.09.2020 20:00:00 6,9 5,5 6,5 17,2 19,2 18 10 53 29 WNW 1010,9 17 5 2,4
25.09.2020 19:00:00 10,7 6,1 8,2 17,3 19,2 9 5 34 18 NW 1008,7 45 36 0,6
25.09.2020 18:00:00 10,6 5,6 10,5 17,3 19,2 17 9 30 16 NW 1008,5 37 0 0,0
25.09.2020 17:00:00 10,6 4,3 10,3 17,0 19,2 22 12 66 36 NW 1007,8 24 16 0,0
25.09.2020 16:00:00 14,4 5,2 11,4 16,9 19,2 23 12 39 21 W 1005,7 47 51 0,0
25.09.2020 15:00:00 11,6 5,7 12,0 16,7 19,2 17 9 44 24 NNW 1006,7 31 2 0,0
25.09.2020 14:00:00 11,4 7,5 10,2 16,6 19,2 14 8 41 22 NW 1006,6 11 8 0,2
25.09.2020 13:00:00 12,5 4,0 9,9 16,5 19,2 17 9 30 16 NW 1006,3 55 8 0,0
25.09.2020 12:00:00 11,9 6,4 9,7 16,5 19,2 7 4 26 14 NW 1006,5 41 0 0,2
25.09.2020 11:00:00 12,2 4,2 11,7 16,7 19,2 10 6 29 16 W 1006,6 40 0 0,0
25.09.2020 10:00:00 11,1 3,4 11,3 16,9 19,3 11 6 27 14 SSW 1006,7 60 26 0,0
25.09.2020 09:00:00 11,3 3,8 8,6 17,1 19,3 15 8 29 16 SSW 1006,6 60 11 0,0
25.09.2020 08:00:00 9,4 4,2 7,9 17,4 19,2 16 9 26 14 S 1007,1 60 0 0,0
25.09.2020 07:00:00 8,8 4,8 7,8 17,7 19,3 12 7 19 11 S 1007,0 60 0 0,0
25.09.2020 06:00:00 10,9 4,8 10,1 17,9 19,3 9 5 35 19 SSW 1006,8 60 0 0,0
25.09.2020 05:00:00 11,4 5,0 10,8 18,1 19,3 23 12 43 23 WSW 1006,8 60 0 0,0
25.09.2020 04:00:00 11,8 6,3 10,0 18,3 19,3 17 9 35 19 WSW 1007,1 60 0 0,2
25.09.2020 03:00:00 11,0 9,1 10,2 18,5 19,3 6 3 19 11 SE 1007,9 60 0 0,0
25.09.2020 02:00:00 11,8 9,4 11,0 18,7 19,3 18 10 41 22 N 1007,3 9 0 0,4
25.09.2020 01:00:00 16,0 7,5 13,3 18,9 19,3 13 7 31 17 SSW 1005,8 60 0 0,0
25.09.2020 00:00:00 14,7 8,2 12,8 19,2 19,3 5 3 34 19 SSW 1006,4 60 0 0,0
24.09.2020 23:00:00 16,6 7,8 14,2 19,4 19,3 14 7 32 18 SW 1007,1 60 0 0,0
24.09.2020 22:00:00 15,6 8,6 13,5 19,6 19,3 8 4 25 14 S 1007,1 60 0 0,0
24.09.2020 21:00:00 17,0 9,4 14,9 19,8 19,3 16 9 33 18 SSW 1006,7 60 0 0,0
24.09.2020 20:00:00 17,8 10,9 17,0 19,9 19,2 13 7 42 23 WSW 1006,2 60 13 0,0
24.09.2020 19:00:00 18,9 11,5 18,7 19,9 19,3 16 9 32 17 WSW 1005,6 53 45 0,0
24.09.2020 18:00:00 18,5 13,6 15,8 19,8 19,3 11 6 40 21 WSW 1005,8 58 1 0,0
24.09.2020 17:00:00 22,0 10,5 22,3 19,6 19,3 20 11 40 22 WSW 1005,1 51 0 0,0
24.09.2020 16:00:00 22,3 11,4 23,6 19,3 19,3 23 12 45 25 S 1005,2 55 7 0,0
24.09.2020 15:00:00 22,4 13,2 22,2 19,0 19,3 17 9 34 18 SSW 1006,0 37 27 0,0
24.09.2020 14:00:00 20,6 13,3 20,7 18,9 19,3 18 10 33 18 SSW 1007,0 41 6 0,0
24.09.2020 13:00:00 18,9 13,5 16,6 18,8 19,3 13 7 23 13 S 1008,4 47 0 0,0
24.09.2020 12:00:00 18,6 12,8 16,2 18,6 19,4 16 9 36 19 SSW 1009,0 18 5 0,2
24.09.2020 11:00:00 20,1 12,8 21,5 18,6 19,4 18 10 31 17 S 1008,6 45 42 0,0
24.09.2020 10:00:00 18,3 12,7 17,9 18,6 19,4 9 5 16 9 S 1009,6 53 4 0,0
24.09.2020 09:00:00 17,2 12,3 16,2 18,7 19,4 9 5 23 12 S 1009,7 60 0 0,0
24.09.2020 08:00:00 17,2 11,7 14,9 18,9 19,4 9 5 16 9 S 1009,8 60 0 0,0
24.09.2020 07:00:00 16,4 12,2 15,1 19,0 19,4 9 5 23 12 S 1010,2 60 0 0,0
24.09.2020 06:00:00 17,0 12,1 14,6 19,2 19,4 10 5 22 12 S 1010,6 60 0 0,0
24.09.2020 05:00:00 16,8 12,3 15,3 19,4 19,4 10 6 24 13 S 1010,4 60 0 0,0
24.09.2020 04:00:00 17,6 12,3 16,0 19,6 19,4 14 7 27 15 S 1010,4 60 0 0,0
24.09.2020 03:00:00 18,2 12,4 16,9 19,8 19,4 16 9 24 13 S 1010,6 60 0 0,0
24.09.2020 02:00:00 18,9 12,2 17,8 20,0 19,4 14 8 30 16 S 1010,3 60 0 0,0
24.09.2020 01:00:00 19,0 12,0 16,4 20,2 19,4 14 7 24 13 SSW 1009,9 59 0 0,0
24.09.2020 00:00:00 18,5 11,8 16,5 20,5 19,4 11 6 19 11 S 1009,6 60 0 0,0
23.09.2020 23:00:00 19,0 11,8 17,5 20,7 19,4 10 6 29 16 S 1009,2 60 0 0,0
23.09.2020 22:00:00 21,7 11,1 19,7 20,9 19,5 16 9 34 18 SSW 1008,5 57 0 0,0

tt = Température de l'air
td = dewpoint
tt 5cm = Température de l'air 5cm
tt -20cm = Température de l'air -20cm
tt -100cm = Température de l'air -100cm
ff = Vitesse du vent
fx = gusts
dd = Direction du vent
ppp = reduced air pressure
vv = visibility
sd = Ensoleillement
rr = Quantités de précipitations

stations d'obs. à proximité